Regional Weather Roundup
Issued by NWS

Home | Current Version | Previous Version | Graphics & Text | Print | Product List | Glossary On
Versions: 1 2 3 4 5 6 7 8 9 10 11 12 13 14 15 16 17 18 19 20 21 22 23 24 25 26 27 28 29 30 31 32 33 34 35 36 37 38 39 40 41 42 43 44 45 46 47 48 49 50
000
ASUS45 KPSR 280700
RWRAZ

ARIZONA HOURLY REGIONAL WEATHER ROUNDUP
NATIONAL WEATHER SERVICE PHOENIX AZ
1200 AM MST FRI AUG 28 2015

NOTE: FAIR INDICATES FEW OR NO CLOUDS BELOW 12,000 FEET WITH NO
SIGNIFICANT WEATHER AND/OR OBSTRUCTIONS TO VISIBILITY.

AZZ001>003-036-280800-
NORTHWEST ARIZONA

CITY           SKY/WX    TMP DP  RH WIND       PRES   REMARKS
KINGMAN        MOCLDY    76  55  48 SE13      30.10S
$$

AZZ004>008-015-016-018-280800-
NORTH CENTRAL ARIZONA

CITY           SKY/WX    TMP DP  RH WIND       PRES   REMARKS
GRAND CANYON   PTCLDY    52  44  74 CALM      30.35S
WILLIAMS       MOCLDY    59  54  82 S6        30.41S
PRESCOTT       MOCLDY    67  59  75 CALM      30.23S
FLAGSTAFF      NOT AVBL
PAGE           CLEAR     77  52  41 CALM      30.14S
$$

AZZ009>014-017-280800-
NORTHEAST ARIZONA

CITY           SKY/WX    TMP DP  RH WIND       PRES   REMARKS
WINSLOW        NOT AVBL
SAINT JOHNS    MOCLDY    63  58  83 S5        30.26R
WINDOW ROCK    PTCLDY    60  52  74 CALM      30.33S
$$

AZZ023-280800-
GREATER PHOENIX AREA

CITY           SKY/WX    TMP DP  RH WIND       PRES   REMARKS
PHOENIX        MOCLDY    85  72  65 E6        29.92S
LUKE AFB       PTCLDY    83  74  76 NW5       29.92R
DEER VALLEY    PTCLDY    87  62  43 CALM      29.95S
SCOTTSDALE     PTCLDY    86  60  41 CALM      29.97R
MESA-GATEWAY   MOCLDY    82  63  51 CALM      29.97S
$$

AZZ027-028-280800-
SOUTHWEST MARICOPA COUNTY AND PINAL COUNTY

CITY           SKY/WX    TMP DP  RH WIND       PRES   REMARKS
CASA GRANDE    CLEAR     82  59  44 CALM      29.95R
GILA BEND      FAIR      89  62  40 VRB2      29.89R
$$

AZZ503-504-507>509-280800-
SOUTHEAST ARIZONA

CITY           SKY/WX    TMP DP  RH WIND       PRES   REMARKS
TUCSON         CLOUDY    82  61  48 SE3       30.03F
DAVIS-MONTHAN  PTCLDY    78  61  55 E7        30.02F
NOGALES        CLOUDY    72  57  59 W3        30.13F
SIERRA VISTA   CLOUDY    72  60  66 S6        30.19F
SAFFORD        CLOUDY    71  67  87 CALM      30.07S
$$

AZZ020-021-025-026-031-280800-
SOUTHWEST ARIZONA

CITY           SKY/WX    TMP DP  RH WIND       PRES   REMARKS
YUMA           PTCLDY    93  68  43 S6        29.83S
$$

CAZ031-033-041-043-047-048-061-280800-
SOUTHERN CALIFORNIA

CITY           SKY/WX    TMP DP  RH WIND       PRES   REMARKS
DOWNTOWN L.A.  CLEAR     75  65  70 CALM      29.91R
L.A. AIRPORT   CLEAR     75  67  76 CALM      29.91S
SAN DIEGO      CLEAR     76  67  73 CALM      29.92S
BURBANK        CLEAR     79  61  53 E5        29.92F
ONTARIO        CLEAR     81  56  42 SW3       29.94S
RIVERSIDE      CLEAR     81  57  43 CALM      29.94S
PALM SPRINGS   CLEAR     97  54  23 NW10      29.85F
EL CENTRO NAS  PTCLDY    94  52  24 SW7       29.81S
IMPERIAL       CLEAR     96  54  24 SW7       29.79S
BLYTHE         CLEAR     96  65  35 S3        29.83S
$$

NVZ020-UTZ003-280800-
SOUTHERN NEVADA-UTAH

CITY           SKY/WX    TMP DP  RH WIND       PRES   REMARKS
LAS VEGAS      NOT AVBL
SALT LAKE CITY CLEAR     74  44  34 SE9       30.16S
$$

NMZ009-TXZ055-280800-
NEW MEXICO-WEST TEXAS

CITY           SKY/WX    TMP DP  RH WIND       PRES   REMARKS
ALBUQUERQUE    MOCLDY    67  53  61 SE7       30.20F
EL PASO        PTCLDY    78  57  48 E6        30.06F
$$


........................KEY........................
SKY/WX - SKY CONDITION/WEATHER
TMP    - TEMPERATURE IN FAHRENHEIT
DP     - DEW POINT IN FAHRENHEIT
RH     - RELATIVE HUMIDITY IN PERCENT
WIND   - DIRECTION AND SPEED IN MILES PER HOUR (MPH)
VRB    - VARIABLE WIND DIRECTION
PRES   - MEAN SEA LEVEL PRESSURE IN INCHES OF MERCURY
         F - FALLING PRESSURE   R - RISING PRESSURE
         S - STEADY PRESSURE
VSB    - VISIBILITY IN MILES
HX     - HEAT INDEX IN FAHRENHEIT
WCI    - WIND CHILL INDEX IN FAHRENHEIT
TC     - TEMPERATURE IN CELSIUS WHICH IS ALSO KNOWN AS
         TEMPERATURE IN CENTIGRADE
AFB    - AIR FORCE BASE
         LUKE AFB IS LUKE AIR FORCE BASE
         DAVIS-MONTHAN IS DAVIS-MONTHAN AIR FORCE BASE
NAS    - NAVAL AIR STATION
         EL CENTRO NAS IS EL CENTRO NAVAL AIR STATION
N/A    - NOT AVAILABLE



USA.gov is the U.S. government's official web portal to all federal, state and local government web resources and services.